Regional Weather Roundup
Issued by NWS Midland/Odessa, TX

Skip options and go directly to product.
Home | Oldest Version | Previous Version | Current Version | All | Text Only | Save Text | Print | Product List | Glossary On

Skip product version selection by date and time.   
605
ASUS44 KMAF 270201
RWRMAF
MIDLAND AREA WEATHER ROUNDUP
NATIONAL WEATHER SERVICE MIDLAND TX
900 PM CDT THU MAR 26 2015

...IN SOUTHWEST TEXAS AND SOUTHEAST NEW MEXICO...

CITY           SKY/WX    TMP DP  RH WIND       PRES   REMARKS
ALPINE         CLEAR     49  33  53 E3        30.31R
ANDREWS        FAIR      57  21  24 CALM      30.21R
ARTESIA        CLEAR     52  23  32 S8        30.21R
BIG SPRING     CLEAR     59  19  21 CALM      30.21R
CARLSBAD       CLEAR     53  29  39 S8        30.20R
DRYDEN           N/A     57  38  48 NW7       30.20R
FORT STOCKTON  CLEAR     54  29  38 CALM      30.23R
GUAD PASS      CLEAR     51  24  34 SW10      30.27R
HOBBS          CLEAR     54  18  24 SW7       30.22R
MARFA          CLEAR     48  32  53 E6        30.28R
MIDLAND AIRPK  CLEAR     60  22  23 W3        30.21R
MIDLAND INTL   CLEAR     58  27  30 CALM      30.20S
ODESSA         CLEAR     56  25  30 SE5       30.22R
PECOS          CLEAR     56  30  36 S3        30.23R
PRESIDIO       FAIR      67  36  31 N3        30.17R
SEMINOLE       CLEAR     53  21  28 CALM      30.22R
SNYDER         CLEAR     59  22  24 SE3       30.19R
WINK           CLEAR     56  24  29 SW7       30.20R
$$
...OTHER STATIONS IN TEXAS...

CITY           SKY/WX    TMP DP  RH WIND       PRES   REMARKS
ABILENE        CLEAR     56  27  32 NE6       30.18S
AMARILLO       PTCLDY    56  17  21 W9        30.15R
AUSTIN         PTCLDY    54  39  57 N6        30.12R
BROWNSVILLE    PTCLDY    67  54  63 N16G24    30.05R
CORPUS CHRISTI CLOUDY    63  54  72 NW6       30.10R
DALLAS FTW     CLEAR     56  30  37 N10       30.13R
DEL RIO        CLEAR     62  39  42 N5        30.15R
EL PASO        CLEAR     63  26  24 E3        30.20R
HOUSTON INT    MOCLDY    61  48  62 N8        30.04S
LUBBOCK        PTCLDY    56  18  22 W3        30.18R
SAN ANGELO     CLEAR     56  27  32 E5        30.18R
SAN ANTONIO    PTCLDY    62  37  39 N9        30.13R
WACO           CLEAR     55  34  45 N7        30.14R
WICHITA FALLS  NOT AVBL
$$
...OTHER LOCATIONS IN NEW MEXICO...

CITY           SKY/WX    TMP DP  RH WIND       PRES   REMARKS
ALAMAGORDO     PTCLDY    57  18  21 NE6       30.20S
ALBUQUERQUE    PTCLDY    58  18  21 S6        30.21R
CANNON AFB     NOT AVBL
CLOVIS         PTCLDY    48  19  32 SW7       30.19R
HOLLOMAN AFB   NOT AVBL
ROSWELL        CLEAR     55  21  26 S9        30.20R
RUIDOSO        CLEAR     48  14  25 W10       30.29R
SANTA FE       CLEAR     53   8  16 W9        30.20S
TRUTH OR CONSE CLEAR     62  14  15 SW3       30.20R
TUCUMCARI      CLEAR     54  18  24 S6        30.14R
$$

USA.gov is the U.S. government's official web portal to all federal, state and local government web resources and services.